Wind_Speed
47 46 44 44 43 43 43 43 43 40 38 36 35 35 34 33 33 34 33 33 33 33 33 33 33 33 34 34 35 35 35 35 35 35 35 36 37 38 39 40 40 41 41
46 46 45 44 43 43 42 42 42 42 40 38 36 37 37 36 35 35 35 35 35 35 35 36 36 36 36 37 37 38 38 38 39 39 39 39 39 41 41 42 42 42 42
45 44 45 44 44 44 44 42 40 40 39 39 38 37 38 37 37 37 37 37 37 37 37 38 38 39 39 39 40 41 41 41 41 42 43 42 42 42 41 42 43 43 43
42 43 44 44 44 44 43 43 42 42 41 39 39 37 37 38 38 39 38 38 39 40 40 40 41 41 42 42 43 43 43 43 43 44 44 45 45 45 44 43 43 43 43
39 40 42 43 43 43 43 43 42 43 43 42 41 40 39 40 40 39 39 40 40 40 41 41 42 42 43 44 44 45 45 45 45 45 46 47 47 47 47 45 44 44 43
37 37 40 42 43 43 43 43 43 43 44 44 44 43 42 42 42 43 43 42 42 43 43 42 43 44 45 45 45 46 46 47 47 48 48 48 48 48 48 47 46 45 44
38 38 37 38 40 41 42 43 43 44 44 44 45 45 45 45 44 44 44 44 45 44 45 45 46 46 47 47 48 48 49 49 49 49 49 48 48 48 48 47 46 45 44
37 38 38 38 39 40 41 42 43 44 44 45 46 46 46 46 46 46 46 46 47 47 47 48 49 49 50 50 50 50 50 50 50 49 49 49 48 48 47 46 45 44 44
36 36 38 39 39 40 41 42 43 44 45 46 47 47 47 46 46 47 47 48 48 49 49 50 50 51 51 51 51 50 50 49 49 49 49 49 48 47 47 46 46 45 44
34 35 36 37 39 40 41 42 43 44 45 45 46 47 47 47 47 46 47 48 49 49 49 49 49 49 50 50 50 50 50 49 49 49 49 48 47 48 47 47 46 45 45
34 35 36 37 38 39 40 42 42 43 43 44 45 46 46 47 47 48 48 49 48 49 49 49 49 49 49 50 50 50 50 50 49 49 49 48 48 47 46 46 46 45 45
33 35 36 37 37 38 39 40 41 42 43 43 44 45 46 46 47 48 48 48 48 48 48 48 48 48 49 49 49 49 49 49 49 49 48 48 47 46 46 45 45 45 44
31 33 34 35 36 37 38 39 40 41 42 43 43 44 44 45 46 47 47 47 47 48 47 48 48 48 48 49 49 48 48 48 48 47 47 46 46 45 44 44 43 43 42
30 31 32 34 35 36 37 38 39 40 40 41 42 43 43 44 44 45 46 47 47 47 47 47 47 47 47 47 47 47 46 46 45 45 45 44 43 43 43 42 42 41 40
31 31 32 33 34 35 36 36 37 38 39 39 40 41 41 42 43 44 45 45 45 45 45 45 46 46 46 46 45 45 44 43 42 42 42 41 41 41 40 40 40 39 38
32 32 33 33 34 35 35 35 36 36 37 38 38 39 40 41 41 42 42 43 43 43 43 44 44 44 44 44 43 42 42 41 40 40 40 40 39 39 38 38 38 37 36
33 33 34 34 35 35 36 36 36 36 36 37 37 38 38 39 40 40 41 41 42 42 42 42 42 42 42 42 41 40 39 39 39 39 39 39 38 37 37 36 36 35 34
33 34 34 35 36 36 36 36 36 36 36 37 37 37 38 38 39 40 40 41 41 42 42 42 41 40 40 39 39 39 38 38 38 38 37 37 36 36 36 35 34 33 32
33 33 34 34 35 36 36 36 36 36 36 37 37 37 38 38 38 39 40 40 40 40 40 40 39 39 39 39 38 38 37 37 36 36 36 36 35 35 34 33 33 32 32
34 34 34 35 35 35 36 36 36 36 36 37 37 37 37 38 38 39 39 39 39 39 39 39 39 38 38 37 37 36 36 35 35 34 34 34 33 33 32 32 31 31 30
34 35 34 35 36 36 36 36 36 37 37 38 38 38 38 39 39 39 39 39 38 38 38 38 38 37 36 36 35 35 35 34 34 33 32 32 31 31 31 30 30 30 30
34 34 34 35 35 36 36 36 37 37 37 37 37 38 38 38 38 38 38 37 37 38 38 37 37 36 36 35 35 35 34 34 33 32 31 31 30 30 30 30 30 30 30
34 34 34 34 35 35 35 36 37 37 37 37 36 36 36 37 37 37 36 36 36 36 36 35 35 35 34 34 34 33 33 32 31 31 31 31 30 30 30 29 29 29 30
33 33 34 34 34 34 34 35 35 36 36 36 36 35 35 35 35 35 35 35 35 35 34 34 34 33 33 32 32 32 32 31 31 30 30 30 30 30 29 29 29 30 30
31 32 33 33 34 34 34 34 34 35 35 35 35 35 35 34 34 34 34 34 34 34 33 33 33 33 32 32 32 32 31 31 31 30 30 30 30 30 30 30 31 31 31
30 31 32 32 33 34 34 34 34 34 34 34 34 34 34 34 34 34 34 34 34 34 33 33 33 33 33 32 31 31 31 31 31 31 31 31 31 31 31 31 32 32 32
Wind_Direction
227 229 231 232 233 234 235 236 235 237 238 240 243 244 246 250 251 252 254 257 259 260 262 264 265 267 269 271 273 275 277 279 280 283 285 288 290 291 293 295 296 298 300
227 229 231 233 233 234 235 237 238 240 241 242 245 246 247 250 253 255 256 258 260 261 263 265 266 269 271 272 274 275 277 279 280 282 284 286 289 291 292 294 295 297 298
227 228 232 234 236 238 240 241 243 244 246 247 247 249 249 252 254 255 257 259 260 262 263 265 268 270 272 273 274 275 277 279 281 283 284 285 287 288 290 291 293 295 296
229 231 234 236 238 240 243 245 248 248 249 250 250 252 252 253 256 257 259 261 262 263 264 266 268 270 272 274 275 276 278 279 281 283 285 286 288 289 289 290 291 293 294
230 232 235 237 239 241 244 246 249 249 250 250 252 253 256 256 257 259 261 263 265 266 266 267 269 271 273 274 276 277 278 280 282 284 286 287 288 288 289 290 291 292 293
231 233 235 238 240 241 243 246 248 250 251 253 254 255 257 258 259 261 264 265 267 268 269 270 272 272 274 275 277 278 279 281 282 284 285 287 287 288 288 289 290 291 292
233 235 238 240 241 243 245 247 249 251 253 255 257 257 258 259 261 263 264 265 267 268 270 270 272 273 275 276 277 279 280 281 282 283 284 285 286 287 287 287 288 289 290
238 239 240 242 242 243 245 247 249 251 252 254 256 258 259 260 261 263 265 266 268 269 270 271 273 274 275 276 277 278 279 281 282 283 284 284 284 285 285 286 286 287 287
241 241 243 245 245 246 247 248 249 250 253 254 256 258 259 260 262 264 266 268 269 271 272 273 273 274 275 276 277 278 279 280 281 282 283 283 283 284 284 284 285 285 286
243 243 245 246 247 248 248 249 249 251 253 255 256 258 259 261 263 264 266 267 269 270 271 273 273 273 274 276 277 278 279 280 281 282 282 282 282 283 284 283 283 284 284
243 244 245 246 247 248 249 250 251 253 254 255 256 257 258 260 262 264 266 267 269 270 271 272 273 274 275 276 277 278 279 280 281 281 281 282 282 282 282 282 282 282 282
243 243 244 246 247 249 250 251 252 253 254 255 256 257 259 260 262 263 265 266 268 270 272 273 274 276 276 277 278 279 280 280 281 281 281 281 281 281 281 281 281 281 282
244 244 244 245 246 248 250 251 252 253 254 255 256 257 258 260 261 262 264 266 268 270 271 273 274 276 277 278 278 280 280 281 281 281 281 281 281 280 279 280 280 280 280
246 246 245 245 246 247 248 249 251 252 253 255 256 257 258 259 260 261 264 266 267 269 271 273 274 276 278 279 279 279 280 280 280 280 280 279 279 278 278 278 278 279 279
246 245 245 245 246 247 247 249 250 252 254 255 257 258 259 260 261 263 264 266 267 269 271 273 274 276 277 278 278 278 279 279 279 279 279 279 278 278 278 278 278 278 278
247 246 245 245 246 247 248 249 250 252 253 255 256 258 259 261 262 263 265 267 268 269 271 273 274 275 276 277 278 278 278 278 278 278 278 278 278 278 277 277 276 276 276
248 248 248 247 246 247 249 250 252 253 254 255 256 258 259 261 262 264 266 267 269 271 272 273 274 275 276 277 277 278 278 278 278 278 278 278 278 277 276 276 276 275 274
251 250 250 250 250 249 250 251 252 254 255 256 257 258 260 261 263 264 266 267 269 270 272 273 274 275 276 276 277 278 278 278 278 278 278 277 276 276 275 275 274 273 272
252 252 252 251 251 251 252 253 254 255 256 257 258 259 260 262 263 265 266 268 269 271 272 273 274 274 275 275 276 277 278 278 277 277 277 276 276 275 274 273 273 272 272
255 254 254 253 253 253 253 254 254 255 256 257 258 259 261 262 264 265 267 268 269 270 271 272 273 274 275 275 276 276 277 277 277 277 276 276 276 275 275 274 273 273 272
256 256 256 255 254 254 254 255 255 256 256 257 258 260 261 262 264 265 266 268 269 270 271 272 272 273 274 274 275 276 275 275 276 275 275 275 275 275 274 273 273 272 272
258 257 257 256 256 255 255 256 257 257 257 258 259 260 261 262 263 264 266 267 268 270 271 271 271 271 272 273 275 275 274 274 275 275 274 274 273 273 273 273 273 273 273
259 259 258 257 257 257 257 257 257 257 258 258 259 260 261 262 263 264 266 267 268 269 270 270 270 271 272 273 273 273 272 273 274 274 273 273 272 272 273 273 274 274 275
262 262 260 259 258 257 257 257 257 257 257 258 258 260 261 262 262 264 265 266 267 268 269 269 269 270 271 272 272 272 271 272 273 273 273 272 271 271 272 273 274 275 276
265 263 262 261 260 259 259 259 258 257 257 258 258 259 260 261 261 262 263 264 266 267 268 268 268 269 269 271 272 272 271 271 271 271 271 272 271 272 273 274 275 275 276
267 266 264 263 262 261 260 259 258 258 258 258 259 259 260 260 261 262 263 264 265 266 267 268 268 269 269 270 271 271 271 270 270 270 271 272 272 274 274 275 275 275 276
Height
5762 5768 5774 5778 5783 5788 5792 5797 5800 5804 5807 5810 5812 5815 5818 5820 5822 5824 5825 5827 5828 5830 5831 5831 5832 5832 5832 5832 5832 5831 5831 5829 5828 5828 5826 5824 5822 5819 5816 5814 5811 5808 5805
5756 5762 5767 5772 5777 5782 5785 5789 5793 5797 5800 5802 5805 5808 5811 5813 5815 5816 5818 5819 5820 5822 5823 5824 5824 5824 5824 5824 5823 5823 5822 5821 5820 5819 5818 5817 5815 5811 5808 5805 5802 5799 5796
5750 5756 5761 5766 5771 5775 5779 5782 5785 5789 5792 5795 5798 5800 5802 5804 5806 5808 5810 5811 5812 5813 5814 5815 5815 5815 5815 5815 5814 5814 5814 5813 5811 5809 5808 5807 5806 5803 5800 5796 5793 5790 5788
5745 5750 5754 5759 5764 5767 5771 5775 5778 5781 5784 5787 5790 5792 5794 5796 5798 5800 5801 5802 5803 5804 5805 5805 5806 5806 5806 5805 5805 5804 5804 5803 5801 5799 5798 5796 5794 5792 5791 5788 5784 5781 5778
5739 5743 5748 5752 5756 5760 5764 5767 5770 5773 5776 5779 5781 5784 5786 5788 5789 5791 5792 5793 5794 5794 5795 5795 5796 5796 5796 5796 5795 5794 5794 5792 5791 5789 5788 5786 5783 5781 5779 5778 5774 5771 5769
5732 5736 5741 5745 5748 5752 5756 5759 5762 5765 5768 5770 5772 5775 5777 5778 5780 5782 5783 5783 5784 5785 5785 5786 5786 5786 5786 5786 5785 5784 5783 5782 5780 5779 5777 5775 5773 5770 5768 5766 5764 5761 5758
5725 5729 5734 5738 5741 5744 5748 5751 5754 5756 5759 5761 5764 5765 5767 5769 5770 5772 5773 5774 5774 5774 5775 5776 5776 5776 5775 5775 5774 5773 5772 5771 5769 5767 5766 5764 5762 5760 5757 5755 5753 5750 5748
5719 5723 5726 5730 5733 5736 5739 5742 5745 5747 5750 5752 5754 5756 5757 5759 5760 5761 5762 5763 5763 5764 5764 5764 5764 5764 5764 5763 5763 5762 5761 5759 5758 5756 5754 5752 5750 5748 5746 5744 5742 5740 5738
5712 5715 5718 5721 5724 5727 5730 5733 5736 5738 5740 5742 5744 5746 5747 5748 5750 5751 5752 5752 5753 5753 5753 5753 5753 5752 5752 5752 5751 5750 5749 5747 5746 5744 5743 5741 5739 5737 5735 5733 5731 5729 5727
5704 5707 5710 5713 5716 5718 5721 5723 5726 5728 5730 5732 5734 5735 5736 5738 5739 5740 5741 5741 5741 5741 5741 5741 5741 5740 5740 5739 5739 5738 5737 5736 5734 5732 5731 5729 5727 5725 5723 5721 5719 5717 5715
5697 5699 5702 5705 5707 5709 5712 5714 5716 5718 5720 5722 5723 5724 5726 5727 5728 5728 5729 5730 5730 5730 5730 5729 5729 5728 5728 5727 5726 5725 5725 5723 5722 5720 5719 5717 5715 5713 5712 5710 5708 5706 5704
5689 5691 5694 5696 5698 5700 5702 5704 5706 5708 5709 5711 5712 5714 5715 5716 5716 5717 5718 5718 5718 5718 5718 5718 5717 5717 5716 5715 5715 5713 5712 5711 5709 5708 5706 5705 5703 5701 5700 5698 5696 5694 5692
5680 5682 5685 5687 5689 5691 5692 5694 5695 5697 5699 5700 5701 5703 5704 5705 5705 5706 5706 5706 5707 5706 5706 5706 5705 5705 5704 5703 5702 5701 5700 5699 5697 5696 5694 5693 5691 5690 5688 5686 5685 5683 5681
5671 5673 5675 5677 5679 5681 5683 5684 5686 5687 5688 5690 5691 5692 5693 5694 5694 5694 5695 5695 5695 5695 5695 5694 5694 5693 5692 5692 5690 5689 5688 5687 5685 5683 5682 5681 5679 5678 5676 5675 5673 5672 5670
5663 5665 5667 5668 5670 5672 5673 5675 5676 5677 5678 5679 5680 5681 5682 5683 5683 5683 5684 5684 5684 5684 5683 5683 5682 5682 5681 5680 5679 5677 5676 5675 5673 5672 5671 5669 5668 5666 5665 5664 5663 5661 5660
5655 5656 5658 5659 5661 5662 5664 5665 5666 5667 5668 5669 5670 5671 5671 5672 5672 5672 5673 5673 5672 5672 5672 5671 5671 5670 5669 5668 5667 5666 5665 5664 5662 5661 5660 5658 5657 5655 5654 5653 5652 5651 5650
5646 5647 5648 5650 5651 5653 5654 5655 5656 5657 5658 5659 5660 5660 5661 5661 5662 5662 5662 5662 5661 5661 5661 5660 5660 5659 5658 5657 5656 5655 5654 5653 5651 5650 5649 5648 5646 5645 5644 5643 5642 5641 5640
5636 5637 5639 5640 5641 5642 5644 5645 5646 5647 5648 5649 5650 5650 5651 5651 5651 5651 5651 5651 5651 5650 5650 5649 5649 5648 5647 5646 5645 5644 5643 5642 5641 5639 5638 5637 5636 5635 5634 5633 5632 5631 5630
5627 5628 5629 5630 5631 5632 5633 5635 5636 5637 5638 5638 5639 5639 5640 5640 5640 5640 5640 5640 5640 5639 5639 5638 5638 5637 5636 5635 5634 5633 5632 5631 5630 5629 5628 5627 5626 5625 5624 5623 5622 5622 5621
5617 5618 5619 5620 5621 5622 5623 5624 5625 5626 5627 5628 5628 5629 5629 5630 5630 5630 5629 5629 5629 5629 5628 5628 5627 5626 5626 5625 5624 5623 5622 5621 5620 5619 5618 5617 5616 5615 5614 5614 5613 5612 5612
5607 5608 5609 5610 5611 5612 5613 5614 5615 5615 5616 5617 5617 5618 5618 5619 5619 5619 5619 5618 5618 5618 5617 5617 5616 5616 5615 5614 5614 5613 5612 5611 5610 5609 5608 5608 5607 5606 5605 5604 5604 5604 5603
5597 5598 5599 5599 5600 5601 5602 5603 5604 5604 5605 5606 5606 5607 5607 5607 5607 5608 5608 5608 5607 5607 5607 5606 5606 5605 5605 5604 5603 5603 5602 5601 5601 5600 5599 5598 5598 5597 5596 5596 5595 5595 5594
5587 5587 5588 5589 5590 5590 5591 5592 5593 5594 5594 5595 5595 5596 5596 5597 5597 5597 5597 5597 5597 5596 5596 5596 5595 5595 5595 5594 5593 5593 5592 5591 5591 5590 5590 5589 5589 5588 5587 5587 5586 5586 5585
5577 5577 5577 5578 5579 5579 5580 5581 5582 5582 5583 5584 5585 5585 5586 5586 5586 5586 5586 5586 5586 5586 5586 5586 5585 5585 5585 5584 5584 5583 5583 5582 5582 5581 5581 5580 5579 5579 5579 5578 5578 5577 5576
5567 5567 5567 5568 5568 5569 5570 5570 5571 5572 5572 5573 5574 5574 5575 5575 5576 5576 5576 5576 5576 5576 5576 5576 5575 5575 5575 5575 5574 5574 5573 5573 5573 5572 5572 5571 5571 5570 5570 5569 5569 5568 5567
5557 5557 5557 5557 5557 5558 5559 5559 5560 5561 5562 5563 5563 5564 5564 5565 5565 5565 5566 5566 5566 5566 5566 5566 5566 5565 5565 5565 5564 5564 5564 5563 5563 5563 5562 5562 5561 5561 5561 5560 5559 5558 5557